Starlink 32953

operational
NORAD ID: 63561 Int'l Des: 2025-075 Owner: SPXS Country: US Constellation: starlink
LEOCIRCULAR

关于 Starlink 32953

正在加载描述...

实时位置

正在加载3D地球...

即将过境

高度历史

Altitude vs Time

uPlot chart will show altitude changes over time

两行轨道根数

1 63561U 25075P 25304.01711619 .00042234 00000-0 15340-2 0 9990
2 63561 43.0025 283.1287 0001379 256.1278 103.9421 15.27611539 32093
Epoch: Oct 31, 2025 • Age: 12 hours

当前状态

高度 494.2 km
速度 7.62 km/s
星下点 -40.37°S, 14.67°W
发射日期 Apr 13, 2025
运行时间 0.5 years
类型 internet

技术详情

分类 Payload
质量 730.00 kg
干质量 700.00 kg
总质量 730.00 kg
长度 0.30 m
直径 4.10 m
跨度 29.00 m
形状 Box + pan
制造商 SPXS
平台类型 Starlink V2M
阶段状态 In Orbit
所有者/国家 SPXS/US

大型星座

Loading constellations...